QPF
0.00 0.00 0.00 0.00 0.00 0.00 0.00 0.00 0.00 0.00 0.00 0.00 0.00 0.00 0.00 0.00 0.00 0.00 0.00 0.00 0.00 0.00 0.00 0.00 0.00 0.00 0.00 0.00 0.00 0.00 0.00 0.00 0.00 0.00 0.00 0.00 0.00 0.00 0.00 0.00 0.00 0.00 0.00 0.00 0.00 0.00 0.00 0.00 0.00 0.00 0.00 0.00 0.00 0.00 0.00 0.00 0.00 0.00 0.00 0.00 0.00 0.00 0.00 0.00 0.00 0.00 0.00 0.00 0.00
0.00 0.00 0.00 0.00 0.00 0.00 0.00 0.00 0.00 0.00 0.00 0.00 0.00 0.00 0.00 0.00 0.00 0.00 0.00 0.00 0.00 0.00 0.00 0.00 0.00 0.00 0.00 0.00 0.00 0.00 0.00 0.00 0.00 0.00 0.00 0.00 0.00 0.00 0.00 0.00 0.00 0.00 0.00 0.00 0.00 0.00 0.00 0.00 0.00 0.00 0.00 0.00 0.00 0.00 0.00 0.00 0.00 0.00 0.00 0.00 0.00 0.00 0.00 0.00 0.00 0.00 0.00 0.00 0.00
0.00 0.00 0.00 0.00 0.00 0.00 0.00 0.00 0.00 0.00 0.00 0.00 0.00 0.00 0.00 0.00 0.00 0.00 0.00 0.00 0.00 0.00 0.00 0.00 0.00 0.00 0.00 0.00 0.00 0.00 0.00 0.00 0.00 0.00 0.00 0.00 0.00 0.00 0.00 0.00 0.00 0.00 0.00 0.00 0.00 0.00 0.00 0.00 0.00 0.00 0.00 0.00 0.00 0.00 0.00 0.00 0.00 0.00 0.00 0.00 0.00 0.00 0.01 0.01 0.00 0.00 0.00 0.01 0.01
0.00 0.00 0.00 0.00 0.00 0.00 0.00 0.00 0.00 0.00 0.00 0.00 0.00 0.00 0.00 0.00 0.00 0.00 0.00 0.00 0.00 0.00 0.00 0.00 0.00 0.00 0.00 0.00 0.00 0.00 0.00 0.00 0.00 0.00 0.00 0.00 0.00 0.00 0.00 0.00 0.00 0.00 0.00 0.00 0.00 0.00 0.00 0.00 0.00 0.00 0.00 0.00 0.00 0.00 0.00 0.00 0.00 0.00 0.00 0.00 0.00 0.01 0.01 0.01 0.01 0.00 0.01 0.01 0.03
0.00 0.00 0.00 0.00 0.00 0.00 0.00 0.00 0.00 0.00 0.00 0.00 0.00 0.00 0.00 0.00 0.00 0.00 0.00 0.00 0.00 0.00 0.00 0.00 0.00 0.00 0.00 0.00 0.00 0.00 0.00 0.00 0.00 0.00 0.00 0.00 0.00 0.00 0.00 0.00 0.00 0.00 0.00 0.00 0.00 0.00 0.00 0.00 0.00 0.00 0.00 0.00 0.00 0.00 0.00 0.00 0.00 0.00 0.00 0.00 0.00 0.00 0.00 0.00 0.01 0.01 0.02 0.03 0.03
0.00 0.00 0.00 0.00 0.00 0.00 0.00 0.00 0.00 0.00 0.00 0.00 0.00 0.00 0.00 0.00 0.00 0.00 0.00 0.00 0.00 0.00 0.00 0.00 0.00 0.00 0.00 0.00 0.00 0.00 0.00 0.00 0.00 0.00 0.00 0.00 0.00 0.00 0.00 0.00 0.00 0.00 0.00 0.00 0.00 0.00 0.00 0.00 0.00 0.00 0.00 0.00 0.00 0.00 0.00 0.00 0.00 0.00 0.00 0.00 0.00 0.01 0.01 0.02 0.02 0.03 0.04 0.04 0.02
0.00 0.00 0.00 0.00 0.00 0.00 0.00 0.00 0.00 0.00 0.00 0.00 0.00 0.00 0.00 0.00 0.00 0.00 0.00 0.00 0.00 0.00 0.00 0.00 0.00 0.00 0.00 0.00 0.00 0.00 0.00 0.00 0.00 0.00 0.00 0.00 0.00 0.00 0.00 0.00 0.00 0.00 0.00 0.00 0.00 0.00 0.00 0.00 0.01 0.01 0.00 0.00 0.00 0.00 0.00 0.00 0.00 0.00 0.00 0.00 0.00 0.00 0.00 0.00 0.01 0.02 0.02 0.02 0.02
0.00 0.00 0.00 0.00 0.00 0.00 0.00 0.00 0.00 0.00 0.00 0.00 0.00 0.00 0.00 0.00 0.00 0.00 0.00 0.00 0.00 0.00 0.00 0.00 0.00 0.00 0.00 0.00 0.00 0.00 0.00 0.00 0.00 0.00 0.00 0.00 0.00 0.00 0.00 0.00 0.00 0.00 0.00 0.00 0.00 0.00 0.00 0.01 0.01 0.01 0.01 0.01 0.00 0.00 0.00 0.00 0.00 0.00 0.00 0.00 0.01 0.01 0.01 0.01 0.01 0.01 0.01 0.02 0.02
0.00 0.00 0.00 0.00 0.00 0.00 0.00 0.00 0.00 0.00 0.00 0.00 0.00 0.00 0.00 0.00 0.00 0.00 0.00 0.00 0.00 0.00 0.00 0.00 0.00 0.00 0.00 0.00 0.00 0.00 0.00 0.00 0.00 0.00 0.00 0.00 0.00 0.00 0.00 0.00 0.00 0.00 0.00 0.00 0.00 0.00 0.00 0.00 0.01 0.01 0.01 0.00 0.00 0.00 0.00 0.00 0.00 0.00 0.00 0.01 0.01 0.02 0.03 0.03 0.03 0.03 0.03 0.04 0.05
0.00 0.00 0.00 0.00 0.00 0.00 0.00 0.00 0.00 0.00 0.00 0.00 0.00 0.00 0.00 0.00 0.00 0.00 0.00 0.00 0.00 0.00 0.00 0.00 0.00 0.00 0.00 0.00 0.00 0.00 0.00 0.00 0.00 0.00 0.00 0.00 0.00 0.00 0.00 0.00 0.00 0.00 0.00 0.00 0.01 0.01 0.00 0.00 0.00 0.00 0.00 0.00 0.01 0.01 0.01 0.00 0.00 0.01 0.01 0.01 0.02 0.02 0.03 0.03 0.04 0.04 0.05 0.09 0.08
0.00 0.00 0.00 0.00 0.00 0.00 0.00 0.00 0.00 0.00 0.00 0.00 0.00 0.00 0.00 0.00 0.00 0.00 0.00 0.00 0.00 0.00 0.00 0.00 0.00 0.00 0.00 0.00 0.00 0.00 0.00 0.00 0.00 0.00 0.00 0.00 0.00 0.00 0.00 0.00 0.00 0.01 0.01 0.01 0.01 0.01 0.01 0.01 0.00 0.01 0.01 0.01 0.01 0.01 0.01 0.01 0.01 0.02 0.02 0.02 0.03 0.03 0.05 0.07 0.08 0.09 0.08 0.05 0.04
0.00 0.00 0.00 0.00 0.00 0.00 0.00 0.00 0.00 0.00 0.00 0.00 0.00 0.00 0.00 0.00 0.00 0.00 0.00 0.00 0.00 0.00 0.00 0.00 0.00 0.00 0.00 0.00 0.00 0.00 0.00 0.00 0.00 0.00 0.00 0.00 0.00 0.00 0.00 0.00 0.00 0.00 0.01 0.01 0.01 0.01 0.02 0.01 0.01 0.01 0.01 0.01 0.01 0.01 0.01 0.01 0.01 0.02 0.02 0.03 0.03 0.04 0.06 0.07 0.07 0.06 0.05 0.03 0.04
0.00 0.00 0.00 0.00 0.00 0.00 0.00 0.00 0.00 0.00 0.00 0.00 0.00 0.00 0.00 0.00 0.00 0.00 0.00 0.00 0.00 0.00 0.00 0.00 0.00 0.00 0.00 0.00 0.00 0.00 0.00 0.00 0.00 0.00 0.00 0.00 0.00 0.00 0.00 0.00 0.00 0.00 0.00 0.00 0.01 0.01 0.01 0.01 0.01 0.00 0.00 0.00 0.01 0.01 0.01 0.01 0.02 0.03 0.04 0.05 0.06 0.06 0.06 0.06 0.04 0.03 0.02 0.02 0.02
0.00 0.00 0.00 0.00 0.00 0.00 0.00 0.00 0.00 0.00 0.00 0.00 0.00 0.00 0.00 0.00 0.00 0.00 0.00 0.00 0.00 0.00 0.00 0.00 0.00 0.00 0.00 0.00 0.00 0.00 0.00 0.00 0.00 0.00 0.00 0.00 0.00 0.00 0.00 0.00 0.00 0.00 0.00 0.00 0.00 0.00 0.00 0.00 0.00 0.00 0.00 0.00 0.01 0.01 0.01 0.03 0.04 0.05 0.06 0.06 0.06 0.05 0.05 0.04 0.03 0.03 0.02 0.01 0.01
0.00 0.00 0.00 0.00 0.00 0.00 0.00 0.00 0.00 0.00 0.00 0.00 0.00 0.00 0.00 0.00 0.00 0.00 0.00 0.00 0.00 0.00 0.00 0.00 0.00 0.00 0.00 0.00 0.00 0.00 0.00 0.00 0.00 0.00 0.00 0.00 0.00 0.00 0.00 0.00 0.00 0.00 0.00 0.00 0.00 0.00 0.00 0.00 0.00 0.00 0.00 0.01 0.01 0.03 0.04 0.06 0.06 0.06 0.06 0.05 0.04 0.04 0.03 0.03 0.03 0.03 0.02 0.01 0.01
0.00 0.00 0.00 0.00 0.00 0.00 0.00 0.00 0.00 0.00 0.00 0.00 0.00 0.00 0.00 0.00 0.00 0.00 0.00 0.00 0.00 0.00 0.00 0.00 0.00 0.00 0.00 0.00 0.00 0.00 0.00 0.00 0.00 0.00 0.00 0.00 0.00 0.00 0.00 0.00 0.00 0.00 0.00 0.00 0.00 0.00 0.00 0.00 0.00 0.00 0.01 0.03 0.04 0.06 0.07 0.07 0.06 0.05 0.04 0.03 0.03 0.03 0.04 0.03 0.03 0.02 0.02 0.01 0.01
0.00 0.00 0.00 0.00 0.00 0.00 0.00 0.00 0.00 0.00 0.00 0.00 0.00 0.00 0.00 0.00 0.00 0.00 0.00 0.00 0.00 0.00 0.00 0.00 0.00 0.00 0.00 0.00 0.00 0.00 0.00 0.00 0.00 0.00 0.00 0.00 0.00 0.00 0.00 0.00 0.00 0.00 0.00 0.00 0.00 0.00 0.00 0.00 0.01 0.02 0.03 0.05 0.06 0.06 0.06 0.04 0.04 0.03 0.03 0.03 0.04 0.03 0.03 0.03 0.02 0.01 0.01 0.01 0.01
0.00 0.00 0.00 0.00 0.00 0.00 0.00 0.00 0.00 0.00 0.00 0.00 0.00 0.00 0.00 0.00 0.00 0.00 0.00 0.00 0.00 0.00 0.00 0.00 0.00 0.00 0.00 0.00 0.00 0.00 0.00 0.00 0.00 0.00 0.00 0.00 0.00 0.00 0.00 0.00 0.00 0.00 0.00 0.00 0.00 0.00 0.01 0.01 0.03 0.04 0.05 0.06 0.07 0.05 0.03 0.03 0.03 0.03 0.03 0.04 0.04 0.03 0.03 0.02 0.01 0.01 0.00 0.00 0.00
0.00 0.00 0.00 0.00 0.00 0.00 0.00 0.00 0.00 0.00 0.00 0.00 0.00 0.00 0.00 0.00 0.00 0.00 0.00 0.00 0.00 0.00 0.00 0.00 0.00 0.00 0.00 0.00 0.00 0.00 0.00 0.00 0.00 0.00 0.00 0.00 0.00 0.00 0.00 0.00 0.00 0.00 0.00 0.00 0.01 0.01 0.02 0.02 0.03 0.05 0.06 0.07 0.05 0.04 0.03 0.03 0.04 0.04 0.04 0.03 0.03 0.03 0.02 0.01 0.01 0.00 0.00 0.00 0.00
0.00 0.00 0.00 0.00 0.00 0.00 0.00 0.00 0.00 0.00 0.00 0.00 0.00 0.00 0.00 0.00 0.00 0.00 0.00 0.00 0.00 0.00 0.00 0.00 0.00 0.00 0.00 0.00 0.00 0.00 0.00 0.00 0.00 0.00 0.00 0.00 0.00 0.00 0.00 0.00 0.00 0.01 0.01 0.02 0.03 0.03 0.03 0.03 0.03 0.04 0.05 0.05 0.04 0.04 0.04 0.04 0.04 0.04 0.03 0.03 0.02 0.02 0.01 0.00 0.00 0.00 0.00 0.00 0.00
0.00 0.00 0.00 0.00 0.00 0.00 0.00 0.00 0.00 0.00 0.00 0.00 0.00 0.00 0.00 0.00 0.00 0.00 0.00 0.00 0.00 0.00 0.00 0.00 0.00 0.00 0.00 0.00 0.00 0.00 0.00 0.00 0.00 0.00 0.00 0.00 0.00 0.00 0.00 0.01 0.01 0.02 0.03 0.04 0.05 0.05 0.04 0.03 0.03 0.03 0.03 0.04 0.03 0.03 0.03 0.03 0.03 0.02 0.02 0.02 0.01 0.01 0.01 0.00 0.00 0.00 0.00 0.00 0.00
0.00 0.00 0.00 0.00 0.00 0.00 0.00 0.00 0.00 0.00 0.00 0.00 0.00 0.00 0.00 0.00 0.00 0.00 0.00 0.00 0.00 0.00 0.00 0.00 0.00 0.00 0.00 0.00 0.00 0.00 0.00 0.00 0.00 0.00 0.00 0.00 0.00 0.01 0.02 0.02 0.03 0.04 0.05 0.06 0.06 0.06 0.05 0.04 0.04 0.04 0.04 0.03 0.03 0.03 0.02 0.02 0.02 0.01 0.01 0.01 0.00 0.00 0.00 0.00 0.00 0.00 0.00 0.00 0.00
0.00 0.00 0.00 0.00 0.00 0.00 0.00 0.00 0.00 0.00 0.00 0.00 0.00 0.00 0.00 0.00 0.00 0.00 0.00 0.00 0.00 0.00 0.00 0.00 0.00 0.00 0.00 0.00 0.00 0.00 0.00 0.00 0.00 0.00 0.00 0.00 0.01 0.02 0.03 0.04 0.04 0.04 0.05 0.06 0.06 0.05 0.05 0.04 0.04 0.04 0.03 0.02 0.02 0.01 0.01 0.01 0.01 0.01 0.00 0.00 0.00 0.00 0.00 0.00 0.00 0.00 0.00 0.00 0.00
0.00 0.00 0.00 0.00 0.00 0.00 0.00 0.00 0.00 0.00 0.00 0.00 0.00 0.00 0.00 0.00 0.00 0.00 0.00 0.00 0.00 0.00 0.00 0.00 0.00 0.00 0.00 0.00 0.00 0.00 0.00 0.00 0.00 0.00 0.01 0.01 0.02 0.03 0.04 0.05 0.05 0.05 0.05 0.05 0.04 0.04 0.04 0.03 0.04 0.03 0.02 0.01 0.01 0.01 0.00 0.00 0.00 0.00 0.00 0.00 0.00 0.00 0.00 0.00 0.00 0.00 0.00 0.00 0.00
0.00 0.00 0.00 0.00 0.00 0.00 0.00 0.00 0.00 0.00 0.00 0.00 0.00 0.00 0.00 0.00 0.00 0.00 0.00 0.00 0.00 0.00 0.00 0.00 0.00 0.00 0.00 0.00 0.00 0.00 0.00 0.00 0.00 0.01 0.01 0.02 0.03 0.04 0.05 0.05 0.05 0.04 0.04 0.04 0.03 0.03 0.03 0.03 0.03 0.02 0.01 0.01 0.00 0.00 0.00 0.00 0.00 0.00 0.00 0.00 0.00 0.00 0.00 0.00 0.00 0.00 0.00 0.00 0.00
0.00 0.00 0.00 0.00 0.00 0.00 0.00 0.00 0.00 0.00 0.00 0.00 0.00 0.00 0.00 0.00 0.00 0.00 0.00 0.00 0.00 0.00 0.00 0.00 0.00 0.00 0.00 0.00 0.00 0.00 0.00 0.00 0.00 0.00 0.01 0.01 0.03 0.05 0.05 0.05 0.04 0.03 0.03 0.03 0.02 0.02 0.02 0.02 0.01 0.01 0.01 0.00 0.00 0.00 0.00 0.00 0.00 0.00 0.00 0.00 0.00 0.00 0.00 0.00 0.00 0.00 0.00 0.00 0.00
0.00 0.00 0.00 0.00 0.00 0.00 0.00 0.00 0.00 0.00 0.00 0.00 0.00 0.00 0.00 0.00 0.00 0.00 0.00 0.00 0.00 0.00 0.00 0.00 0.00 0.00 0.00 0.01 0.01 0.01 0.01 0.00 0.01 0.01 0.01 0.02 0.03 0.05 0.05 0.05 0.04 0.03 0.02 0.02 0.02 0.01 0.01 0.01 0.01 0.00 0.00 0.00 0.00 0.00 0.00 0.00 0.00 0.00 0.00 0.00 0.00 0.00 0.00 0.00 0.00 0.00 0.00 0.00 0.00
0.00 0.00 0.00 0.00 0.00 0.00 0.00 0.00 0.00 0.00 0.00 0.00 0.00 0.00 0.00 0.00 0.00 0.00 0.00 0.00 0.00 0.00 0.00 0.00 0.00 0.00 0.01 0.01 0.01 0.01 0.01 0.00 0.01 0.02 0.02 0.02 0.04 0.04 0.04 0.04 0.03 0.02 0.02 0.01 0.01 0.01 0.01 0.00 0.00 0.00 0.00 0.00 0.00 0.00 0.00 0.00 0.00 0.00 0.00 0.00 0.00 0.00 0.00 0.00 0.00 0.00 0.00 0.00 0.00
0.00 0.00 0.00 0.00 0.00 0.00 0.00 0.00 0.00 0.00 0.00 0.00 0.00 0.00 0.00 0.00 0.00 0.00 0.00 0.00 0.00 0.00 0.00 0.00 0.01 0.01 0.01 0.01 0.01 0.01 0.01 0.01 0.01 0.02 0.03 0.03 0.04 0.04 0.04 0.03 0.03 0.02 0.02 0.01 0.01 0.01 0.01 0.00 0.00 0.00 0.00 0.00 0.00 0.00 0.00 0.00 0.00 0.00 0.00 0.00 0.00 0.00 0.00 0.00 0.00 0.00 0.00 0.00 0.00
0.00 0.00 0.00 0.00 0.00 0.00 0.00 0.00 0.00 0.00 0.00 0.00 0.00 0.00 0.00 0.00 0.00 0.00 0.00 0.00 0.00 0.00 0.00 0.01 0.01 0.01 0.01 0.01 0.01 0.01 0.01 0.01 0.01 0.02 0.03 0.03 0.04 0.04 0.04 0.03 0.02 0.02 0.02 0.02 0.01 0.01 0.00 0.00 0.00 0.00 0.00 0.00 0.00 0.00 0.00 0.00 0.00 0.00 0.00 0.00 0.00 0.00 0.00 0.00 0.00 0.00 0.00 0.00 0.00
0.00 0.00 0.00 0.00 0.00 0.00 0.00 0.00 0.00 0.00 0.00 0.00 0.00 0.00 0.00 0.00 0.00 0.00 0.00 0.00 0.00 0.00 0.01 0.01 0.01 0.01 0.01 0.01 0.01 0.01 0.01 0.01 0.02 0.02 0.03 0.03 0.04 0.04 0.03 0.03 0.03 0.02 0.02 0.02 0.01 0.01 0.00 0.00 0.00 0.00 0.00 0.00 0.00 0.00 0.00 0.00 0.00 0.00 0.00 0.00 0.00 0.00 0.00 0.00 0.00 0.00 0.00 0.00 0.00
0.00 0.00 0.00 0.00 0.00 0.00 0.00 0.00 0.00 0.00 0.00 0.00 0.00 0.00 0.00 0.00 0.00 0.00 0.00 0.00 0.00 0.01 0.01 0.01 0.01 0.01 0.01 0.01 0.01 0.01 0.01 0.02 0.02 0.02 0.03 0.03 0.03 0.03 0.03 0.03 0.03 0.02 0.02 0.02 0.01 0.00 0.00 0.00 0.00 0.00 0.00 0.00 0.00 0.00 0.00 0.00 0.00 0.00 0.00 0.00 0.00 0.00 0.00 0.00 0.00 0.00 0.00 0.00 0.00
0.00 0.00 0.00 0.00 0.00 0.00 0.00 0.00 0.00 0.00 0.00 0.00 0.00 0.00 0.00 0.00 0.01 0.01 0.00 0.00 0.00 0.01 0.01 0.01 0.01 0.01 0.01 0.01 0.02 0.02 0.02 0.02 0.02 0.02 0.03 0.03 0.03 0.03 0.03 0.03 0.03 0.02 0.02 0.01 0.01 0.00 0.00 0.00 0.00 0.00 0.00 0.00 0.00 0.00 0.00 0.00 0.00 0.00 0.00 0.00 0.00 0.00 0.00 0.00 0.00 0.00 0.00 0.00 0.00
0.00 0.00 0.00 0.00 0.00 0.00 0.00 0.00 0.00 0.00 0.00 0.00 0.01 0.01 0.00 0.01 0.01 0.01 0.01 0.01 0.01 0.01 0.01 0.01 0.01 0.01 0.01 0.01 0.02 0.02 0.03 0.03 0.03 0.03 0.02 0.02 0.02 0.02 0.03 0.03 0.03 0.02 0.01 0.01 0.00 0.00 0.00 0.00 0.00 0.00 0.00 0.00 0.00 0.00 0.00 0.00 0.00 0.00 0.00 0.00 0.00 0.00 0.00 0.00 0.00 0.00 0.00 0.00 0.00
0.00 0.00 0.00 0.00 0.00 0.00 0.00 0.00 0.00 0.00 0.01 0.01 0.01 0.01 0.01 0.01 0.01 0.01 0.01 0.01 0.01 0.01 0.02 0.01 0.01 0.01 0.01 0.02 0.02 0.02 0.02 0.03 0.03 0.03 0.02 0.02 0.02 0.02 0.02 0.03 0.02 0.02 0.01 0.00 0.00 0.00 0.00 0.00 0.00 0.00 0.00 0.00 0.00 0.00 0.00 0.00 0.00 0.00 0.00 0.00 0.00 0.00 0.00 0.00 0.00 0.00 0.00 0.00 0.00
0.00 0.00 0.00 0.00 0.00 0.00 0.00 0.00 0.01 0.01 0.01 0.01 0.01 0.01 0.01 0.01 0.01 0.01 0.01 0.01 0.01 0.02 0.02 0.02 0.02 0.02 0.02 0.03 0.03 0.03 0.02 0.03 0.03 0.02 0.02 0.02 0.02 0.02 0.02 0.02 0.02 0.01 0.00 0.00 0.00 0.00 0.00 0.00 0.00 0.00 0.00 0.00 0.00 0.00 0.00 0.00 0.00 0.00 0.00 0.00 0.00 0.00 0.00 0.00 0.00 0.00 0.00 0.00 0.00
0.00 0.00 0.00 0.00 0.00 0.00 0.00 0.01 0.01 0.01 0.01 0.01 0.01 0.01 0.01 0.01 0.01 0.01 0.01 0.01 0.01 0.02 0.02 0.02 0.03 0.03 0.03 0.03 0.03 0.03 0.03 0.02 0.02 0.02 0.02 0.02 0.02 0.02 0.02 0.02 0.01 0.01 0.00 0.00 0.00 0.00 0.00 0.00 0.00 0.00 0.00 0.00 0.00 0.00 0.00 0.00 0.00 0.00 0.00 0.00 0.00 0.00 0.00 0.00 0.00 0.00 0.00 0.00 0.00
0.00 0.00 0.00 0.00 0.00 0.00 0.00 0.01 0.01 0.01 0.01 0.01 0.01 0.01 0.01 0.01 0.01 0.01 0.01 0.01 0.01 0.02 0.02 0.03 0.03 0.03 0.03 0.03 0.03 0.04 0.03 0.03 0.02 0.01 0.01 0.01 0.01 0.01 0.01 0.01 0.01 0.00 0.00 0.00 0.00 0.00 0.00 0.00 0.00 0.00 0.00 0.00 0.00 0.00 0.00 0.00 0.00 0.00 0.00 0.00 0.00 0.00 0.00 0.00 0.00 0.00 0.00 0.00 0.00
0.00 0.00 0.00 0.00 0.00 0.00 0.01 0.01 0.01 0.01 0.01 0.01 0.01 0.01 0.01 0.01 0.01 0.01 0.01 0.01 0.01 0.01 0.02 0.03 0.04 0.04 0.04 0.03 0.04 0.04 0.04 0.03 0.02 0.01 0.01 0.01 0.01 0.01 0.01 0.00 0.00 0.00 0.00 0.00 0.00 0.00 0.00 0.00 0.00 0.00 0.00 0.00 0.00 0.00 0.00 0.00 0.00 0.00 0.00 0.00 0.00 0.00 0.00 0.00 0.00 0.00 0.00 0.00 0.00
0.00 0.00 0.00 0.00 0.00 0.00 0.01 0.01 0.01 0.01 0.01 0.01 0.01 0.01 0.01 0.01 0.01 0.01 0.02 0.02 0.02 0.02 0.02 0.02 0.03 0.04 0.04 0.04 0.04 0.04 0.04 0.04 0.02 0.02 0.01 0.01 0.01 0.01 0.00 0.00 0.00 0.00 0.00 0.00 0.00 0.00 0.00 0.00 0.00 0.00 0.00 0.00 0.00 0.00 0.00 0.00 0.00 0.00 0.00 0.00 0.00 0.00 0.00 0.00 0.00 0.00 0.00 0.00 0.00
0.00 0.00 0.00 0.00 0.00 0.01 0.01 0.01 0.01 0.01 0.01 0.01 0.01 0.01 0.01 0.01 0.01 0.02 0.02 0.02 0.03 0.03 0.03 0.03 0.04 0.04 0.04 0.04 0.03 0.03 0.03 0.03 0.03 0.02 0.01 0.01 0.00 0.00 0.00 0.00 0.00 0.00 0.00 0.00 0.00 0.00 0.00 0.00 0.00 0.00 0.00 0.00 0.00 0.00 0.00 0.00 0.00 0.00 0.00 0.00 0.00 0.00 0.00 0.00 0.00 0.00 0.00 0.00 0.00
MSLP
1007.11 1007.31 1007.47 1007.67 1007.87 1008.07 1008.27 1008.39 1008.59 1008.75 1008.91 1009.11 1009.35 1009.47 1009.67 1009.87 1010.07 1010.23 1010.39 1010.55 1010.67 1010.87 1011.03 1011.19 1011.35 1011.51 1011.71 1011.87 1011.99 1012.11 1012.27 1012.35 1012.47 1012.63 1012.79 1012.99 1013.19 1013.35 1013.55 1013.71 1013.91 1014.11 1014.35 1014.59 1014.83 1015.07 1015.31 1015.43 1015.59 1015.75 1015.91 1016.03 1016.11 1016.19 1016.19 1016.19 1016.35 1016.55 1016.71 1016.87 1016.95 1017.11 1017.31 1017.55 1017.75 1017.91 1018.07 1018.23 1018.31
1006.91 1007.07 1007.27 1007.47 1007.63 1007.87 1008.07 1008.27 1008.43 1008.59 1008.75 1008.91 1009.07 1009.27 1009.47 1009.71 1009.91 1010.11 1010.31 1010.47 1010.59 1010.75 1010.91 1011.11 1011.27 1011.47 1011.63 1011.79 1011.91 1012.03 1012.23 1012.35 1012.47 1012.59 1012.71 1012.91 1013.03 1013.23 1013.47 1013.63 1013.79 1014.03 1014.23 1014.47 1014.75 1014.99 1015.19 1015.35 1015.51 1015.67 1015.83 1015.99 1016.07 1016.15 1016.15 1016.15 1016.23 1016.43 1016.59 1016.71 1016.79 1016.99 1017.23 1017.47 1017.71 1017.87 1018.03 1018.19 1018.31
1006.67 1006.91 1007.07 1007.31 1007.47 1007.67 1007.87 1008.03 1008.19 1008.39 1008.59 1008.75 1008.91 1009.11 1009.35 1009.59 1009.75 1009.95 1010.15 1010.31 1010.47 1010.67 1010.91 1011.07 1011.23 1011.39 1011.55 1011.75 1011.87 1011.99 1012.15 1012.31 1012.43 1012.55 1012.67 1012.79 1012.95 1013.15 1013.35 1013.51 1013.71 1013.91 1014.15 1014.35 1014.63 1014.79 1014.99 1015.19 1015.35 1015.51 1015.71 1015.83 1015.99 1016.07 1016.11 1016.11 1016.19 1016.35 1016.47 1016.63 1016.75 1016.91 1017.19 1017.47 1017.75 1017.87 1017.99 1018.19 1018.31
1006.47 1006.71 1006.91 1007.07 1007.23 1007.39 1007.59 1007.75 1007.95 1008.19 1008.39 1008.63 1008.83 1009.03 1009.23 1009.43 1009.63 1009.83 1010.03 1010.23 1010.47 1010.63 1010.79 1010.99 1011.19 1011.35 1011.47 1011.67 1011.87 1011.99 1012.11 1012.27 1012.39 1012.51 1012.63 1012.75 1012.91 1013.03 1013.23 1013.43 1013.63 1013.87 1014.03 1014.23 1014.43 1014.59 1014.75 1014.95 1015.11 1015.27 1015.47 1015.63 1015.75 1015.87 1015.95 1016.07 1016.15 1016.27 1016.43 1016.55 1016.75 1016.95 1017.19 1017.47 1017.67 1017.83 1017.95 1018.11 1018.27
1006.27 1006.43 1006.59 1006.75 1006.95 1007.11 1007.31 1007.51 1007.79 1008.03 1008.27 1008.51 1008.75 1008.95 1009.15 1009.35 1009.51 1009.75 1009.95 1010.15 1010.35 1010.51 1010.67 1010.87 1011.03 1011.27 1011.43 1011.59 1011.79 1011.95 1012.11 1012.23 1012.35 1012.47 1012.63 1012.71 1012.91 1013.03 1013.15 1013.35 1013.59 1013.79 1013.95 1014.11 1014.31 1014.43 1014.59 1014.79 1014.95 1015.11 1015.27 1015.43 1015.55 1015.67 1015.79 1015.95 1016.11 1016.23 1016.39 1016.59 1016.75 1016.95 1017.15 1017.35 1017.59 1017.75 1017.91 1018.07 1018.23
1006.03 1006.19 1006.35 1006.51 1006.75 1006.95 1007.19 1007.39 1007.67 1007.91 1008.15 1008.35 1008.63 1008.87 1009.03 1009.19 1009.43 1009.63 1009.83 1010.03 1010.19 1010.43 1010.63 1010.79 1010.99 1011.19 1011.35 1011.55 1011.75 1011.91 1012.07 1012.19 1012.31 1012.47 1012.63 1012.71 1012.87 1012.99 1013.15 1013.31 1013.51 1013.71 1013.91 1014.07 1014.23 1014.35 1014.55 1014.75 1014.95 1015.11 1015.23 1015.35 1015.47 1015.59 1015.71 1015.91 1016.07 1016.27 1016.47 1016.67 1016.87 1016.99 1017.11 1017.35 1017.55 1017.75 1017.91 1018.03 1018.19
1005.75 1005.95 1006.19 1006.35 1006.63 1006.83 1007.03 1007.27 1007.51 1007.75 1008.03 1008.23 1008.47 1008.67 1008.87 1009.03 1009.31 1009.47 1009.67 1009.91 1010.15 1010.39 1010.59 1010.75 1010.91 1011.11 1011.35 1011.55 1011.75 1011.87 1012.03 1012.19 1012.31 1012.43 1012.59 1012.67 1012.83 1012.99 1013.15 1013.27 1013.47 1013.67 1013.91 1014.03 1014.23 1014.39 1014.55 1014.75 1014.95 1015.15 1015.27 1015.39 1015.51 1015.63 1015.75 1015.91 1016.03 1016.31 1016.55 1016.79 1016.95 1017.03 1017.19 1017.35 1017.59 1017.75 1017.91 1018.03 1018.23
1005.59 1005.79 1005.99 1006.19 1006.47 1006.71 1006.91 1007.15 1007.39 1007.67 1007.91 1008.11 1008.31 1008.51 1008.71 1008.95 1009.19 1009.43 1009.63 1009.87 1010.07 1010.31 1010.47 1010.63 1010.83 1011.03 1011.23 1011.47 1011.63 1011.79 1011.95 1012.11 1012.27 1012.39 1012.51 1012.63 1012.83 1012.95 1013.11 1013.27 1013.47 1013.67 1013.87 1014.03 1014.23 1014.43 1014.59 1014.75 1014.95 1015.15 1015.31 1015.43 1015.55 1015.63 1015.75 1015.87 1016.07 1016.31 1016.63 1016.91 1017.03 1017.19 1017.27 1017.47 1017.63 1017.79 1017.91 1018.11 1018.27
1005.47 1005.63 1005.83 1006.07 1006.31 1006.59 1006.79 1007.03 1007.27 1007.51 1007.75 1007.95 1008.15 1008.35 1008.63 1008.87 1009.11 1009.35 1009.59 1009.79 1009.99 1010.19 1010.35 1010.55 1010.75 1010.95 1011.15 1011.35 1011.55 1011.75 1011.91 1012.03 1012.23 1012.35 1012.51 1012.63 1012.79 1012.95 1013.11 1013.27 1013.47 1013.67 1013.83 1013.99 1014.15 1014.31 1014.55 1014.75 1014.95 1015.11 1015.27 1015.39 1015.51 1015.63 1015.75 1015.91 1016.15 1016.43 1016.71 1016.95 1017.11 1017.27 1017.43 1017.55 1017.67 1017.83 1018.03 1018.19 1018.31
1005.31 1005.51 1005.75 1005.99 1006.19 1006.43 1006.67 1006.91 1007.15 1007.35 1007.59 1007.83 1008.07 1008.31 1008.55 1008.79 1009.03 1009.27 1009.47 1009.71 1009.91 1010.15 1010.31 1010.51 1010.75 1010.91 1011.11 1011.31 1011.47 1011.63 1011.83 1011.99 1012.19 1012.35 1012.47 1012.63 1012.75 1012.91 1013.07 1013.27 1013.47 1013.67 1013.87 1014.03 1014.15 1014.31 1014.47 1014.71 1014.91 1015.07 1015.19 1015.35 1015.47 1015.63 1015.83 1015.99 1016.23 1016.51 1016.75 1016.99 1017.19 1017.35 1017.55 1017.67 1017.79 1017.91 1018.11 1018.27 1018.43
1005.07 1005.31 1005.55 1005.79 1006.03 1006.31 1006.59 1006.87 1007.11 1007.35 1007.55 1007.79 1008.03 1008.27 1008.47 1008.71 1008.91 1009.15 1009.35 1009.63 1009.91 1010.11 1010.31 1010.47 1010.67 1010.87 1011.03 1011.23 1011.39 1011.59 1011.75 1011.91 1012.07 1012.27 1012.43 1012.55 1012.71 1012.87 1013.03 1013.23 1013.43 1013.63 1013.83 1014.03 1014.19 1014.31 1014.51 1014.67 1014.91 1015.07 1015.23 1015.39 1015.55 1015.75 1015.91 1016.11 1016.35 1016.63 1016.87 1017.07 1017.23 1017.43 1017.63 1017.79 1017.95 1018.07 1018.19 1018.35 1018.47
1004.91 1005.15 1005.39 1005.63 1005.91 1006.19 1006.51 1006.79 1007.03 1007.27 1007.47 1007.75 1007.99 1008.19 1008.43 1008.63 1008.83 1009.07 1009.35 1009.59 1009.83 1010.03 1010.19 1010.35 1010.55 1010.75 1010.95 1011.19 1011.35 1011.55 1011.71 1011.91 1012.03 1012.19 1012.35 1012.51 1012.71 1012.87 1013.03 1013.19 1013.43 1013.63 1013.79 1014.03 1014.19 1014.31 1014.51 1014.71 1014.87 1015.07 1015.31 1015.47 1015.63 1015.83 1016.03 1016.19 1016.43 1016.67 1016.91 1017.15 1017.27 1017.47 1017.67 1017.91 1018.07 1018.19 1018.31 1018.39 1018.55
1004.79 1005.03 1005.35 1005.59 1005.87 1006.15 1006.43 1006.67 1006.95 1007.19 1007.43 1007.67 1007.91 1008.15 1008.31 1008.59 1008.79 1009.03 1009.27 1009.51 1009.71 1009.91 1010.15 1010.31 1010.47 1010.67 1010.91 1011.07 1011.31 1011.47 1011.67 1011.83 1011.99 1012.15 1012.31 1012.47 1012.67 1012.87 1013.03 1013.23 1013.43 1013.63 1013.79 1013.99 1014.15 1014.31 1014.47 1014.71 1014.91 1015.11 1015.35 1015.55 1015.75 1015.91 1016.07 1016.27 1016.47 1016.71 1016.95 1017.19 1017.35 1017.59 1017.79 1017.99 1018.19 1018.31 1018.39 1018.51 1018.67
1004.71 1004.95 1005.23 1005.47 1005.75 1006.03 1006.31 1006.59 1006.83 1007.07 1007.35 1007.63 1007.83 1008.03 1008.31 1008.51 1008.75 1008.95 1009.19 1009.43 1009.63 1009.91 1010.11 1010.31 1010.51 1010.67 1010.83 1011.03 1011.27 1011.43 1011.63 1011.79 1011.99 1012.15 1012.31 1012.51 1012.67 1012.83 1013.03 1013.27 1013.43 1013.63 1013.79 1013.99 1014.15 1014.31 1014.47 1014.71 1014.91 1015.15 1015.35 1015.59 1015.79 1015.99 1016.15 1016.31 1016.51 1016.75 1016.95 1017.19 1017.43 1017.67 1017.91 1018.11 1018.27 1018.39 1018.51 1018.67 1018.79
1004.63 1004.87 1005.11 1005.39 1005.67 1005.95 1006.19 1006.47 1006.71 1006.99 1007.27 1007.51 1007.75 1007.95 1008.23 1008.51 1008.75 1008.91 1009.11 1009.35 1009.63 1009.83 1010.03 1010.31 1010.51 1010.67 1010.83 1011.03 1011.19 1011.39 1011.59 1011.75 1011.95 1012.15 1012.31 1012.51 1012.71 1012.91 1013.07 1013.27 1013.47 1013.63 1013.83 1014.03 1014.19 1014.35 1014.55 1014.75 1014.95 1015.19 1015.43 1015.63 1015.87 1016.07 1016.27 1016.47 1016.63 1016.83 1017.03 1017.27 1017.51 1017.75 1017.99 1018.19 1018.35 1018.47 1018.63 1018.75 1018.91
1004.51 1004.75 1005.03 1005.31 1005.59 1005.83 1006.07 1006.31 1006.59 1006.87 1007.19 1007.47 1007.67 1007.91 1008.19 1008.47 1008.67 1008.91 1009.11 1009.35 1009.63 1009.83 1010.03 1010.27 1010.51 1010.71 1010.91 1011.03 1011.19 1011.39 1011.59 1011.75 1011.95 1012.19 1012.35 1012.55 1012.75 1012.91 1013.11 1013.31 1013.51 1013.71 1013.91 1014.11 1014.31 1014.47 1014.67 1014.87 1015.07 1015.31 1015.55 1015.75 1015.99 1016.19 1016.39 1016.55 1016.75 1016.95 1017.19 1017.39 1017.59 1017.79 1018.03 1018.23 1018.43 1018.55 1018.71 1018.79 1018.95
1004.35 1004.63 1004.91 1005.15 1005.39 1005.63 1005.91 1006.19 1006.43 1006.75 1007.07 1007.35 1007.63 1007.87 1008.07 1008.35 1008.63 1008.87 1009.07 1009.31 1009.55 1009.79 1010.07 1010.31 1010.47 1010.67 1010.91 1011.07 1011.23 1011.43 1011.59 1011.75 1011.99 1012.19 1012.35 1012.55 1012.75 1012.95 1013.15 1013.35 1013.59 1013.75 1013.99 1014.19 1014.39 1014.59 1014.79 1015.03 1015.27 1015.47 1015.67 1015.91 1016.11 1016.31 1016.51 1016.67 1016.87 1017.07 1017.35 1017.51 1017.71 1017.91 1018.11 1018.31 1018.47 1018.63 1018.75 1018.87 1018.99
1004.19 1004.47 1004.71 1004.95 1005.19 1005.47 1005.75 1006.03 1006.31 1006.63 1006.95 1007.23 1007.55 1007.79 1008.03 1008.27 1008.59 1008.83 1009.03 1009.27 1009.47 1009.75 1010.03 1010.27 1010.47 1010.67 1010.87 1011.07 1011.27 1011.43 1011.59 1011.75 1011.99 1012.19 1012.35 1012.55 1012.75 1012.95 1013.19 1013.43 1013.67 1013.91 1014.07 1014.27 1014.47 1014.67 1014.91 1015.19 1015.39 1015.63 1015.83 1016.03 1016.23 1016.47 1016.63 1016.79 1017.03 1017.23 1017.47 1017.63 1017.83 1018.03 1018.23 1018.39 1018.55 1018.71 1018.83 1018.95 1019.03
1004.03 1004.31 1004.55 1004.75 1005.03 1005.31 1005.59 1005.87 1006.19 1006.47 1006.79 1007.11 1007.47 1007.75 1007.99 1008.19 1008.47 1008.75 1009.03 1009.23 1009.47 1009.67 1009.91 1010.19 1010.43 1010.63 1010.83 1011.03 1011.23 1011.43 1011.59 1011.75 1011.99 1012.19 1012.39 1012.59 1012.79 1013.03 1013.31 1013.55 1013.79 1014.03 1014.23 1014.39 1014.59 1014.79 1015.03 1015.27 1015.51 1015.75 1015.99 1016.19 1016.39 1016.59 1016.75 1016.95 1017.19 1017.39 1017.59 1017.79 1018.03 1018.19 1018.39 1018.55 1018.63 1018.75 1018.83 1018.99 1019.15
1003.87 1004.11 1004.35 1004.59 1004.87 1005.19 1005.47 1005.75 1006.07 1006.39 1006.71 1007.03 1007.35 1007.71 1007.95 1008.19 1008.43 1008.67 1008.95 1009.19 1009.43 1009.63 1009.87 1010.15 1010.39 1010.63 1010.87 1011.03 1011.23 1011.43 1011.63 1011.79 1012.03 1012.23 1012.47 1012.67 1012.91 1013.19 1013.43 1013.71 1013.91 1014.15 1014.35 1014.55 1014.75 1014.95 1015.19 1015.39 1015.63 1015.87 1016.03 1016.27 1016.47 1016.71 1016.91 1017.07 1017.35 1017.55 1017.75 1017.99 1018.19 1018.35 1018.51 1018.63 1018.71 1018.79 1018.95 1019.07 1019.23
1003.67 1003.95 1004.19 1004.47 1004.75 1005.07 1005.39 1005.71 1006.03 1006.31 1006.67 1006.99 1007.35 1007.63 1007.91 1008.15 1008.39 1008.63 1008.91 1009.11 1009.35 1009.63 1009.87 1010.11 1010.35 1010.59 1010.83 1011.07 1011.27 1011.47 1011.71 1011.91 1012.11 1012.35 1012.59 1012.83 1013.07 1013.35 1013.59 1013.79 1014.07 1014.31 1014.47 1014.71 1014.91 1015.11 1015.31 1015.51 1015.75 1015.95 1016.15 1016.31 1016.59 1016.79 1017.03 1017.23 1017.47 1017.75 1017.91 1018.15 1018.31 1018.47 1018.63 1018.75 1018.87 1018.99 1019.11 1019.27 1019.39
1003.55 1003.83 1004.15 1004.47 1004.75 1005.07 1005.39 1005.71 1006.03 1006.31 1006.67 1006.99 1007.27 1007.59 1007.91 1008.15 1008.39 1008.63 1008.87 1009.07 1009.35 1009.63 1009.87 1010.11 1010.31 1010.55 1010.75 1011.03 1011.27 1011.51 1011.75 1012.03 1012.27 1012.47 1012.75 1012.99 1013.23 1013.47 1013.71 1013.91 1014.15 1014.39 1014.63 1014.87 1015.03 1015.27 1015.47 1015.63 1015.87 1016.07 1016.27 1016.47 1016.71 1016.91 1017.11 1017.35 1017.63 1017.87 1018.03 1018.27 1018.43 1018.63 1018.75 1018.91 1019.03 1019.15 1019.27 1019.39 1019.55
1003.51 1003.83 1004.15 1004.51 1004.87 1005.19 1005.47 1005.75 1006.07 1006.39 1006.67 1006.95 1007.27 1007.59 1007.87 1008.11 1008.39 1008.63 1008.91 1009.15 1009.39 1009.63 1009.91 1010.11 1010.31 1010.51 1010.75 1010.99 1011.23 1011.55 1011.83 1012.15 1012.43 1012.67 1012.91 1013.15 1013.39 1013.63 1013.87 1014.03 1014.27 1014.51 1014.75 1014.99 1015.15 1015.35 1015.55 1015.79 1016.03 1016.23 1016.43 1016.63 1016.87 1017.03 1017.27 1017.47 1017.71 1017.91 1018.15 1018.35 1018.55 1018.71 1018.83 1018.99 1019.15 1019.27 1019.43 1019.59 1019.75
1003.55 1003.83 1004.15 1004.51 1004.91 1005.23 1005.55 1005.83 1006.15 1006.43 1006.71 1006.99 1007.31 1007.63 1007.91 1008.15 1008.39 1008.67 1008.91 1009.19 1009.43 1009.67 1009.91 1010.15 1010.39 1010.63 1010.83 1011.07 1011.35 1011.59 1011.87 1012.19 1012.51 1012.83 1013.07 1013.35 1013.55 1013.79 1014.03 1014.19 1014.43 1014.63 1014.87 1015.07 1015.19 1015.35 1015.59 1015.83 1016.19 1016.43 1016.63 1016.75 1016.99 1017.19 1017.43 1017.63 1017.83 1018.03 1018.19 1018.39 1018.63 1018.79 1018.91 1019.07 1019.23 1019.43 1019.63 1019.83 1019.95
1003.55 1003.87 1004.19 1004.51 1004.91 1005.27 1005.55 1005.83 1006.19 1006.47 1006.75 1007.03 1007.35 1007.63 1007.91 1008.19 1008.43 1008.71 1008.95 1009.23 1009.47 1009.71 1009.95 1010.19 1010.47 1010.75 1010.99 1011.23 1011.47 1011.63 1011.91 1012.19 1012.59 1012.91 1013.19 1013.47 1013.71 1013.91 1014.11 1014.35 1014.59 1014.75 1014.99 1015.19 1015.31 1015.43 1015.59 1015.83 1016.19 1016.47 1016.75 1016.91 1017.15 1017.35 1017.55 1017.75 1017.91 1018.03 1018.19 1018.39 1018.63 1018.83 1019.03 1019.19 1019.43 1019.67 1019.91 1020.03 1020.15
1003.51 1003.87 1004.19 1004.51 1004.91 1005.23 1005.55 1005.87 1006.19 1006.47 1006.75 1007.07 1007.43 1007.71 1007.95 1008.23 1008.47 1008.75 1008.99 1009.27 1009.51 1009.75 1010.03 1010.27 1010.55 1010.83 1011.11 1011.35 1011.55 1011.79 1012.03 1012.35 1012.63 1012.91 1013.19 1013.47 1013.75 1014.03 1014.23 1014.47 1014.71 1014.91 1015.07 1015.27 1015.39 1015.51 1015.71 1015.95 1016.23 1016.47 1016.75 1016.95 1017.19 1017.43 1017.63 1017.79 1017.95 1018.11 1018.27 1018.47 1018.67 1018.91 1019.15 1019.39 1019.71 1019.91 1020.07 1020.23 1020.35
1003.47 1003.83 1004.19 1004.47 1004.91 1005.23 1005.55 1005.83 1006.19 1006.51 1006.87 1007.15 1007.47 1007.75 1008.03 1008.27 1008.51 1008.75 1009.03 1009.35 1009.63 1009.87 1010.11 1010.35 1010.63 1010.91 1011.15 1011.35 1011.63 1011.95 1012.23 1012.51 1012.75 1013.03 1013.23 1013.51 1013.79 1014.07 1014.35 1014.55 1014.75 1014.99 1015.19 1015.35 1015.47 1015.63 1015.87 1016.11 1016.35 1016.55 1016.75 1016.99 1017.19 1017.43 1017.67 1017.87 1018.03 1018.23 1018.43 1018.63 1018.79 1019.03 1019.31 1019.63 1019.91 1020.11 1020.31 1020.43 1020.51
1003.39 1003.75 1004.07 1004.47 1004.87 1005.23 1005.55 1005.87 1006.23 1006.55 1006.91 1007.19 1007.47 1007.75 1008.03 1008.31 1008.55 1008.83 1009.11 1009.39 1009.67 1009.91 1010.19 1010.47 1010.71 1010.91 1011.19 1011.47 1011.75 1012.03 1012.31 1012.63 1012.87 1013.11 1013.35 1013.63 1013.87 1014.15 1014.43 1014.63 1014.87 1015.03 1015.23 1015.39 1015.55 1015.75 1015.99 1016.19 1016.47 1016.63 1016.83 1017.03 1017.31 1017.51 1017.75 1017.91 1018.15 1018.35 1018.59 1018.79 1019.03 1019.27 1019.55 1019.83 1020.07 1020.27 1020.43 1020.59 1020.71
1003.31 1003.63 1004.03 1004.43 1004.83 1005.19 1005.55 1005.91 1006.27 1006.59 1006.91 1007.19 1007.51 1007.83 1008.07 1008.35 1008.63 1008.91 1009.15 1009.43 1009.71 1009.99 1010.23 1010.51 1010.75 1010.99 1011.31 1011.63 1011.91 1012.19 1012.47 1012.67 1012.95 1013.19 1013.47 1013.75 1014.03 1014.27 1014.51 1014.71 1014.95 1015.19 1015.35 1015.47 1015.67 1015.91 1016.11 1016.31 1016.55 1016.75 1016.91 1017.15 1017.43 1017.63 1017.83 1018.03 1018.27 1018.51 1018.75 1019.03 1019.27 1019.51 1019.79 1020.03 1020.19 1020.39 1020.55 1020.71 1020.87
1003.27 1003.63 1003.99 1004.39 1004.79 1005.19 1005.59 1005.91 1006.27 1006.59 1006.91 1007.23 1007.55 1007.87 1008.19 1008.43 1008.75 1008.99 1009.19 1009.47 1009.75 1009.95 1010.19 1010.47 1010.75 1011.07 1011.43 1011.79 1012.07 1012.31 1012.59 1012.79 1013.03 1013.31 1013.55 1013.83 1014.15 1014.39 1014.63 1014.87 1015.07 1015.31 1015.47 1015.63 1015.79 1016.03 1016.27 1016.47 1016.67 1016.91 1017.03 1017.27 1017.51 1017.75 1017.99 1018.23 1018.47 1018.71 1019.03 1019.31 1019.51 1019.75 1019.99 1020.19 1020.35 1020.51 1020.67 1020.79 1020.99
1003.31 1003.63 1003.99 1004.39 1004.79 1005.19 1005.55 1005.91 1006.31 1006.63 1006.95 1007.27 1007.59 1007.91 1008.23 1008.51 1008.79 1009.03 1009.23 1009.47 1009.75 1009.99 1010.23 1010.51 1010.87 1011.23 1011.63 1011.91 1012.15 1012.39 1012.63 1012.91 1013.15 1013.39 1013.63 1013.91 1014.19 1014.47 1014.75 1015.03 1015.23 1015.47 1015.63 1015.75 1015.95 1016.15 1016.35 1016.63 1016.83 1017.03 1017.19 1017.47 1017.67 1017.95 1018.23 1018.47 1018.75 1018.99 1019.27 1019.51 1019.75 1019.91 1020.11 1020.31 1020.47 1020.63 1020.79 1020.91 1021.07
1003.31 1003.63 1003.99 1004.35 1004.79 1005.19 1005.59 1005.99 1006.31 1006.67 1006.99 1007.27 1007.63 1007.91 1008.23 1008.59 1008.79 1009.03 1009.31 1009.55 1009.79 1010.07 1010.39 1010.71 1011.03 1011.39 1011.75 1012.03 1012.27 1012.51 1012.75 1012.99 1013.27 1013.51 1013.75 1014.03 1014.31 1014.63 1014.91 1015.15 1015.39 1015.63 1015.75 1015.91 1016.11 1016.31 1016.55 1016.75 1016.99 1017.19 1017.43 1017.63 1017.91 1018.23 1018.51 1018.75 1019.03 1019.27 1019.51 1019.75 1019.91 1020.03 1020.23 1020.43 1020.63 1020.79 1020.91 1021.03 1021.19
1003.35 1003.63 1004.03 1004.43 1004.79 1005.19 1005.63 1005.99 1006.35 1006.71 1007.03 1007.35 1007.63 1007.99 1008.31 1008.63 1008.91 1009.19 1009.43 1009.63 1009.91 1010.19 1010.47 1010.79 1011.15 1011.47 1011.75 1012.03 1012.31 1012.63 1012.91 1013.15 1013.39 1013.67 1013.91 1014.15 1014.43 1014.71 1015.03 1015.27 1015.51 1015.75 1015.91 1016.07 1016.31 1016.55 1016.75 1016.95 1017.19 1017.43 1017.67 1017.91 1018.19 1018.51 1018.75 1018.95 1019.23 1019.47 1019.75 1019.91 1020.11 1020.23 1020.39 1020.59 1020.75 1020.91 1021.07 1021.19 1021.35
1003.35 1003.67 1004.03 1004.47 1004.83 1005.23 1005.63 1005.99 1006.35 1006.71 1007.03 1007.39 1007.75 1008.03 1008.35 1008.67 1008.99 1009.31 1009.59 1009.79 1010.03 1010.27 1010.59 1010.91 1011.19 1011.47 1011.75 1012.03 1012.31 1012.67 1013.03 1013.31 1013.59 1013.83 1014.07 1014.31 1014.55 1014.75 1015.03 1015.35 1015.63 1015.91 1016.11 1016.31 1016.51 1016.75 1016.95 1017.15 1017.35 1017.59 1017.83 1018.11 1018.47 1018.75 1018.95 1019.19 1019.43 1019.67 1019.91 1020.07 1020.27 1020.43 1020.59 1020.71 1020.91 1021.03 1021.19 1021.35 1021.47
1003.31 1003.71 1004.11 1004.47 1004.87 1005.23 1005.63 1006.03 1006.39 1006.75 1007.11 1007.47 1007.87 1008.15 1008.43 1008.71 1009.03 1009.35 1009.63 1009.91 1010.19 1010.47 1010.83 1011.11 1011.35 1011.63 1011.91 1012.19 1012.47 1012.75 1013.07 1013.43 1013.71 1013.99 1014.19 1014.43 1014.63 1014.87 1015.19 1015.47 1015.83 1016.07 1016.31 1016.51 1016.71 1016.91 1017.11 1017.31 1017.51 1017.75 1018.03 1018.35 1018.71 1018.99 1019.19 1019.43 1019.63 1019.87 1020.07 1020.23 1020.47 1020.63 1020.79 1020.91 1021.07 1021.23 1021.39 1021.51 1021.67
1003.23 1003.63 1004.03 1004.47 1004.87 1005.23 1005.63 1006.03 1006.43 1006.79 1007.19 1007.55 1007.91 1008.19 1008.51 1008.83 1009.15 1009.43 1009.75 1010.03 1010.39 1010.75 1011.03 1011.35 1011.55 1011.83 1012.11 1012.43 1012.71 1012.95 1013.19 1013.47 1013.79 1014.07 1014.31 1014.47 1014.71 1014.99 1015.31 1015.67 1016.03 1016.35 1016.59 1016.71 1016.91 1017.03 1017.23 1017.47 1017.71 1017.95 1018.23 1018.59 1018.91 1019.19 1019.39 1019.63 1019.83 1020.07 1020.27 1020.47 1020.67 1020.87 1021.03 1021.15 1021.31 1021.47 1021.59 1021.75 1021.91
1003.19 1003.55 1003.95 1004.43 1004.87 1005.23 1005.63 1005.99 1006.43 1006.83 1007.19 1007.59 1007.91 1008.23 1008.55 1008.91 1009.31 1009.63 1009.91 1010.19 1010.59 1010.91 1011.23 1011.47 1011.71 1011.95 1012.27 1012.63 1012.91 1013.19 1013.35 1013.51 1013.79 1014.11 1014.43 1014.63 1014.83 1015.11 1015.47 1015.91 1016.31 1016.63 1016.79 1016.91 1017.07 1017.19 1017.43 1017.63 1017.91 1018.11 1018.39 1018.75 1019.03 1019.35 1019.55 1019.75 1020.03 1020.23 1020.47 1020.67 1020.91 1021.07 1021.19 1021.35 1021.47 1021.63 1021.75 1021.91 1022.03
1003.19 1003.51 1003.91 1004.35 1004.79 1005.23 1005.63 1006.03 1006.43 1006.83 1007.19 1007.63 1007.95 1008.27 1008.63 1008.99 1009.39 1009.75 1010.07 1010.31 1010.67 1011.03 1011.35 1011.63 1011.91 1012.19 1012.47 1012.75 1013.11 1013.39 1013.63 1013.71 1013.87 1014.15 1014.47 1014.75 1014.99 1015.27 1015.63 1016.11 1016.51 1016.79 1016.99 1017.15 1017.23 1017.39 1017.63 1017.87 1018.11 1018.31 1018.55 1018.87 1019.15 1019.39 1019.63 1019.91 1020.19 1020.43 1020.63 1020.91 1021.07 1021.23 1021.35 1021.47 1021.59 1021.75 1021.91 1022.03 1022.11
1003.19 1003.51 1003.87 1004.27 1004.75 1005.19 1005.63 1006.03 1006.39 1006.79 1007.19 1007.63 1007.99 1008.35 1008.75 1009.11 1009.51 1009.91 1010.23 1010.47 1010.75 1011.03 1011.39 1011.75 1012.07 1012.39 1012.71 1012.99 1013.27 1013.55 1013.83 1013.99 1014.11 1014.27 1014.59 1014.95 1015.23 1015.51 1015.87 1016.27 1016.67 1016.99 1017.19 1017.31 1017.43 1017.63 1017.83 1018.07 1018.31 1018.51 1018.75 1018.99 1019.23 1019.47 1019.75 1020.03 1020.31 1020.59 1020.83 1021.03 1021.23 1021.43 1021.59 1021.71 1021.79 1021.95 1022.07 1022.11 1022.11
1003.15 1003.47 1003.83 1004.19 1004.67 1005.11 1005.59 1006.03 1006.47 1006.83 1007.19 1007.59 1008.03 1008.47 1008.83 1009.19 1009.63 1010.03 1010.39 1010.71 1010.95 1011.19 1011.51 1011.91 1012.27 1012.63 1012.91 1013.19 1013.39 1013.71 1014.03 1014.31 1014.47 1014.63 1014.83 1015.19 1015.51 1015.79 1016.07 1016.43 1016.79 1017.15 1017.39 1017.51 1017.63 1017.79 1018.03 1018.27 1018.51 1018.75 1018.95 1019.19 1019.39 1019.63 1019.87 1020.11 1020.39 1020.71 1020.99 1021.19 1021.35 1021.59 1021.79 1021.95 1022.07 1022.19 1022.31 1022.31 1022.27
1003.19 1003.55 1003.91 1004.31 1004.67 1005.11 1005.59 1006.07 1006.51 1006.91 1007.27 1007.63 1008.03 1008.47 1008.91 1009.35 1009.75 1010.19 1010.55 1010.91 1011.19 1011.47 1011.75 1012.07 1012.47 1012.79 1013.07 1013.35 1013.59 1013.87 1014.19 1014.55 1014.83 1015.03 1015.23 1015.51 1015.79 1016.07 1016.31 1016.59 1016.95 1017.31 1017.55 1017.71 1017.83 1017.99 1018.19 1018.47 1018.71 1018.91 1019.15 1019.39 1019.59 1019.75 1019.95 1020.19 1020.51 1020.83 1021.15 1021.35 1021.51 1021.71 1021.91 1022.15 1022.27 1022.35 1022.47 1022.47 1022.47
Thickness
5683 5683 5683 5682 5682 5681 5681 5681 5681 5680 5680 5679 5679 5678 5677 5676 5675 5674 5674 5673 5673 5673 5672 5671 5670 5670 5669 5669 5669 5668 5667 5666 5665 5663 5662 5660 5659 5657 5656 5654 5652 5650 5648 5645 5643 5641 5640 5638 5637 5635 5633 5631 5629 5627 5625 5624 5622 5620 5617 5615 5613 5610 5608 5605 5602 5600 5597 5595 5593
5683 5683 5683 5682 5681 5681 5680 5680 5679 5680 5679 5679 5678 5677 5676 5675 5674 5673 5672 5672 5671 5671 5670 5669 5669 5668 5667 5667 5667 5666 5665 5664 5663 5662 5660 5659 5658 5656 5655 5653 5651 5650 5647 5645 5643 5640 5639 5637 5635 5633 5631 5629 5627 5625 5624 5623 5621 5619 5616 5614 5612 5609 5606 5603 5600 5598 5596 5593 5591
5683 5682 5682 5681 5681 5680 5680 5679 5679 5679 5678 5677 5677 5676 5675 5674 5673 5672 5671 5670 5669 5669 5668 5667 5666 5666 5665 5665 5664 5664 5663 5661 5660 5659 5658 5657 5656 5655 5653 5652 5650 5648 5646 5644 5642 5640 5639 5637 5635 5632 5630 5627 5625 5624 5622 5621 5619 5617 5615 5612 5610 5607 5604 5601 5598 5596 5594 5591 5589
5682 5682 5681 5681 5681 5681 5680 5680 5679 5678 5677 5676 5675 5674 5673 5672 5671 5671 5669 5668 5667 5667 5666 5665 5664 5664 5663 5663 5662 5661 5660 5659 5658 5657 5656 5655 5654 5653 5652 5650 5648 5647 5645 5643 5642 5640 5638 5636 5634 5632 5630 5627 5625 5623 5621 5619 5617 5615 5613 5610 5608 5605 5603 5600 5597 5595 5592 5589 5587
5682 5682 5682 5681 5681 5681 5680 5679 5678 5677 5675 5674 5673 5672 5672 5671 5670 5669 5668 5667 5666 5666 5665 5664 5663 5662 5662 5662 5660 5659 5658 5657 5656 5655 5654 5653 5652 5651 5651 5649 5647 5645 5643 5642 5640 5639 5638 5636 5633 5631 5629 5627 5625 5622 5620 5618 5615 5613 5611 5608 5606 5603 5601 5598 5595 5593 5590 5588 5585
5682 5682 5682 5681 5681 5679 5678 5678 5676 5675 5674 5673 5672 5671 5670 5670 5668 5667 5666 5665 5665 5664 5663 5662 5662 5661 5660 5659 5658 5657 5656 5655 5654 5653 5652 5651 5650 5649 5648 5647 5645 5644 5642 5640 5639 5637 5635 5634 5631 5629 5627 5625 5623 5620 5618 5615 5613 5610 5608 5605 5603 5601 5599 5596 5593 5591 5588 5586 5584
5682 5681 5680 5680 5679 5678 5677 5676 5675 5674 5673 5672 5671 5670 5670 5668 5667 5666 5665 5664 5663 5662 5661 5660 5660 5659 5658 5657 5656 5655 5654 5653 5652 5651 5650 5649 5648 5647 5646 5645 5643 5642 5640 5638 5637 5635 5633 5631 5628 5626 5624 5622 5620 5618 5616 5614 5611 5608 5605 5602 5600 5599 5597 5594 5591 5589 5587 5584 5582
5681 5680 5680 5679 5678 5677 5676 5675 5674 5673 5672 5671 5670 5670 5669 5667 5666 5665 5664 5662 5662 5660 5660 5660 5659 5658 5657 5655 5654 5653 5652 5651 5649 5648 5648 5647 5646 5645 5644 5643 5642 5640 5638 5637 5635 5633 5631 5628 5626 5624 5622 5620 5617 5615 5613 5611 5609 5606 5603 5600 5597 5596 5594 5592 5590 5587 5585 5583 5580
5679 5679 5679 5678 5677 5676 5675 5674 5674 5672 5672 5671 5670 5669 5667 5666 5664 5663 5662 5661 5660 5659 5659 5658 5657 5656 5655 5654 5652 5651 5650 5649 5647 5647 5645 5645 5644 5643 5642 5641 5640 5638 5636 5635 5633 5631 5629 5626 5624 5622 5620 5617 5615 5613 5611 5609 5606 5603 5600 5597 5595 5593 5592 5590 5587 5585 5583 5580 5578
5680 5679 5678 5677 5676 5675 5674 5673 5672 5671 5670 5669 5668 5667 5665 5664 5663 5662 5661 5659 5659 5658 5657 5656 5655 5654 5653 5652 5651 5650 5648 5647 5646 5645 5644 5643 5642 5641 5640 5639 5637 5636 5634 5632 5631 5629 5627 5624 5622 5620 5618 5615 5613 5610 5608 5606 5603 5600 5597 5595 5593 5591 5589 5587 5585 5583 5580 5578 5575
5679 5679 5678 5676 5675 5674 5673 5672 5671 5670 5669 5668 5667 5665 5664 5663 5662 5660 5659 5658 5657 5656 5655 5654 5653 5652 5651 5650 5649 5648 5646 5645 5645 5643 5642 5641 5640 5639 5639 5637 5636 5634 5632 5629 5628 5626 5625 5622 5620 5617 5615 5612 5610 5608 5605 5603 5600 5597 5595 5592 5591 5589 5586 5584 5582 5580 5578 5575 5574
5679 5678 5677 5676 5674 5673 5671 5670 5669 5668 5667 5666 5665 5663 5662 5661 5660 5659 5658 5656 5655 5654 5654 5653 5652 5651 5650 5648 5647 5646 5645 5644 5642 5641 5640 5639 5639 5638 5636 5635 5633 5632 5630 5628 5626 5624 5622 5620 5618 5615 5612 5610 5607 5605 5602 5600 5597 5595 5592 5591 5588 5586 5584 5581 5579 5577 5575 5574 5571
5678 5677 5675 5674 5673 5671 5670 5669 5668 5667 5666 5665 5663 5662 5661 5660 5658 5657 5656 5655 5654 5653 5652 5651 5650 5649 5648 5647 5645 5644 5643 5642 5640 5639 5639 5638 5636 5635 5634 5633 5631 5629 5628 5626 5624 5622 5620 5618 5615 5612 5609 5606 5604 5602 5600 5597 5595 5593 5590 5589 5586 5584 5582 5579 5576 5574 5572 5571 5569
5677 5676 5674 5674 5672 5671 5669 5668 5667 5666 5664 5663 5662 5661 5659 5657 5656 5655 5654 5653 5652 5651 5650 5649 5648 5647 5646 5645 5643 5642 5641 5640 5639 5638 5637 5635 5634 5633 5632 5631 5629 5627 5625 5624 5622 5620 5618 5614 5612 5609 5606 5604 5601 5599 5597 5595 5593 5591 5589 5587 5585 5582 5579 5576 5574 5572 5570 5568 5565
5675 5675 5674 5672 5671 5670 5669 5667 5666 5665 5664 5662 5661 5659 5658 5655 5654 5654 5653 5651 5650 5649 5648 5647 5645 5645 5644 5643 5641 5640 5639 5638 5637 5635 5634 5633 5632 5631 5630 5628 5626 5625 5623 5621 5619 5617 5614 5611 5609 5606 5603 5601 5598 5596 5594 5592 5590 5589 5587 5584 5582 5579 5576 5574 5571 5569 5567 5566 5563
5675 5674 5673 5672 5671 5669 5668 5667 5666 5664 5662 5661 5659 5658 5656 5654 5653 5652 5651 5650 5648 5647 5646 5645 5644 5642 5641 5640 5639 5638 5637 5636 5635 5633 5632 5631 5630 5629 5627 5626 5624 5622 5620 5618 5615 5613 5610 5608 5605 5603 5600 5598 5595 5593 5591 5590 5588 5586 5584 5581 5578 5576 5574 5571 5569 5567 5565 5564 5561
5674 5673 5672 5672 5670 5669 5668 5667 5665 5663 5661 5659 5658 5656 5654 5653 5651 5650 5649 5648 5647 5645 5644 5643 5642 5640 5638 5637 5637 5635 5635 5634 5632 5631 5630 5629 5628 5627 5625 5623 5621 5619 5617 5615 5612 5609 5606 5603 5601 5599 5597 5594 5592 5591 5589 5587 5585 5583 5580 5578 5576 5574 5572 5569 5567 5565 5563 5561 5559
5674 5673 5672 5671 5670 5669 5668 5666 5664 5662 5660 5658 5656 5654 5653 5651 5650 5648 5647 5647 5645 5644 5642 5641 5640 5638 5636 5635 5634 5633 5632 5631 5630 5629 5629 5628 5626 5625 5622 5620 5618 5616 5613 5611 5609 5606 5603 5600 5597 5595 5593 5591 5590 5588 5586 5584 5582 5580 5577 5575 5573 5571 5569 5567 5565 5563 5561 5559 5557
5673 5672 5671 5670 5669 5668 5666 5664 5663 5661 5659 5657 5655 5652 5651 5650 5648 5647 5645 5644 5643 5642 5641 5639 5637 5636 5634 5633 5632 5632 5630 5629 5629 5628 5627 5625 5623 5622 5620 5617 5614 5612 5610 5607 5605 5602 5599 5597 5595 5592 5590 5589 5587 5585 5583 5581 5579 5577 5575 5572 5570 5568 5566 5564 5563 5561 5559 5556 5555
5672 5671 5670 5669 5668 5667 5665 5663 5661 5659 5657 5655 5653 5650 5649 5648 5646 5645 5644 5643 5642 5641 5639 5637 5635 5633 5632 5631 5630 5629 5628 5627 5627 5625 5624 5622 5620 5618 5616 5614 5610 5608 5606 5603 5601 5599 5596 5593 5591 5590 5588 5586 5584 5582 5580 5578 5575 5573 5571 5569 5567 5565 5564 5562 5560 5558 5556 5554 5552
5671 5670 5669 5668 5666 5665 5663 5662 5659 5657 5655 5653 5651 5649 5647 5646 5645 5644 5643 5642 5640 5639 5637 5635 5633 5632 5630 5629 5628 5626 5626 5624 5624 5622 5621 5619 5617 5615 5612 5610 5607 5604 5602 5599 5597 5595 5593 5591 5589 5586 5585 5583 5581 5579 5577 5575 5573 5570 5568 5567 5564 5562 5561 5559 5557 5555 5553 5551 5549
5669 5668 5667 5665 5663 5662 5661 5659 5657 5654 5653 5651 5649 5647 5646 5644 5643 5642 5641 5640 5638 5636 5635 5633 5631 5630 5628 5627 5626 5624 5623 5622 5620 5619 5618 5616 5613 5611 5609 5606 5603 5600 5598 5596 5593 5592 5590 5588 5585 5584 5582 5580 5578 5576 5575 5572 5570 5568 5566 5564 5562 5560 5558 5556 5554 5552 5550 5548 5546
5667 5665 5664 5662 5660 5659 5657 5655 5654 5652 5650 5649 5647 5645 5644 5642 5641 5640 5639 5637 5636 5634 5632 5630 5629 5628 5626 5625 5624 5623 5621 5619 5617 5616 5614 5612 5609 5607 5605 5602 5599 5597 5594 5592 5590 5589 5587 5585 5582 5580 5579 5577 5575 5574 5572 5570 5568 5566 5564 5562 5560 5558 5556 5553 5552 5550 5547 5545 5542
5663 5662 5660 5659 5657 5655 5653 5652 5650 5649 5648 5646 5645 5643 5641 5640 5639 5637 5636 5635 5633 5631 5630 5628 5626 5625 5623 5623 5622 5621 5619 5617 5614 5612 5610 5608 5605 5603 5600 5598 5596 5593 5591 5589 5588 5586 5585 5582 5579 5577 5576 5574 5573 5571 5569 5567 5565 5564 5562 5560 5558 5555 5553 5551 5549 5547 5544 5541 5539
5660 5659 5657 5656 5654 5652 5651 5649 5648 5646 5645 5643 5642 5640 5639 5637 5636 5635 5634 5632 5630 5628 5627 5625 5623 5621 5620 5620 5619 5618 5617 5614 5612 5609 5607 5604 5602 5599 5597 5594 5592 5590 5588 5586 5585 5584 5582 5580 5577 5575 5573 5572 5570 5568 5566 5565 5563 5562 5560 5558 5556 5553 5551 5549 5546 5543 5540 5537 5535
5657 5656 5655 5653 5651 5650 5648 5647 5645 5643 5642 5640 5639 5637 5636 5634 5634 5632 5631 5629 5627 5625 5624 5622 5620 5619 5618 5617 5616 5615 5613 5611 5609 5607 5604 5601 5598 5595 5593 5591 5589 5587 5584 5583 5582 5581 5579 5577 5575 5573 5571 5570 5567 5566 5564 5562 5561 5560 5558 5556 5553 5551 5549 5545 5542 5539 5536 5534 5531
5654 5653 5652 5651 5649 5647 5645 5644 5642 5641 5639 5637 5636 5634 5633 5632 5631 5629 5628 5626 5624 5622 5620 5618 5617 5617 5616 5615 5614 5612 5610 5608 5606 5604 5601 5598 5595 5592 5589 5588 5586 5583 5582 5580 5579 5578 5576 5574 5573 5571 5570 5568 5566 5564 5562 5560 5559 5557 5555 5553 5551 5548 5546 5542 5539 5536 5533 5530 5528
5653 5651 5649 5648 5646 5644 5643 5641 5640 5638 5636 5634 5633 5631 5630 5629 5627 5626 5624 5623 5621 5619 5617 5615 5615 5615 5614 5613 5611 5609 5607 5605 5603 5600 5597 5594 5592 5589 5587 5584 5582 5580 5579 5578 5577 5575 5573 5572 5570 5569 5567 5565 5564 5562 5560 5559 5557 5554 5552 5550 5548 5545 5542 5539 5535 5533 5530 5527 5525
5650 5649 5647 5646 5643 5642 5640 5638 5637 5635 5633 5632 5630 5628 5627 5625 5624 5623 5621 5619 5618 5616 5614 5614 5614 5613 5612 5609 5607 5605 5604 5602 5599 5596 5593 5590 5588 5586 5584 5581 5579 5577 5576 5575 5574 5572 5570 5569 5568 5566 5565 5563 5561 5560 5558 5556 5554 5552 5549 5546 5544 5542 5538 5535 5533 5530 5527 5524 5522
5647 5647 5645 5643 5641 5639 5638 5636 5634 5632 5630 5628 5626 5624 5624 5622 5621 5619 5618 5616 5615 5614 5614 5613 5612 5610 5608 5606 5604 5603 5601 5598 5596 5593 5590 5587 5585 5582 5581 5578 5576 5574 5573 5572 5571 5570 5568 5567 5565 5564 5562 5561 5559 5557 5555 5553 5551 5548 5545 5543 5540 5538 5535 5532 5529 5527 5524 5521 5519
5644 5643 5642 5640 5638 5636 5634 5633 5631 5629 5627 5625 5623 5622 5620 5619 5617 5616 5615 5613 5613 5613 5612 5611 5609 5607 5605 5603 5601 5600 5597 5594 5591 5589 5587 5584 5582 5579 5577 5575 5573 5572 5570 5569 5568 5567 5565 5564 5562 5561 5559 5558 5556 5554 5551 5549 5547 5544 5542 5540 5537 5534 5532 5529 5527 5524 5521 5519 5516
5641 5640 5638 5637 5635 5633 5631 5629 5627 5625 5623 5622 5620 5619 5617 5616 5614 5613 5612 5611 5611 5610 5609 5608 5606 5603 5601 5600 5598 5596 5593 5590 5587 5585 5583 5581 5579 5576 5574 5572 5570 5569 5568 5567 5565 5564 5563 5561 5560 5558 5556 5555 5553 5550 5548 5546 5543 5541 5538 5536 5534 5532 5529 5527 5524 5521 5518 5516 5513
5639 5637 5635 5633 5632 5630 5628 5626 5624 5622 5620 5619 5617 5615 5613 5612 5611 5609 5609 5609 5609 5608 5606 5605 5603 5601 5599 5596 5594 5591 5588 5586 5583 5582 5580 5578 5576 5573 5571 5569 5567 5566 5565 5564 5562 5561 5559 5558 5557 5555 5553 5551 5549 5547 5544 5542 5540 5538 5535 5533 5530 5529 5526 5523 5520 5518 5515 5513 5510
5637 5635 5633 5631 5629 5627 5625 5623 5621 5619 5617 5615 5614 5612 5610 5609 5608 5607 5606 5606 5606 5605 5603 5602 5600 5598 5596 5594 5590 5587 5584 5582 5579 5578 5576 5574 5572 5570 5569 5567 5565 5563 5562 5561 5559 5558 5557 5555 5553 5552 5550 5548 5545 5543 5541 5539 5537 5535 5532 5530 5527 5525 5523 5520 5518 5515 5512 5509 5506
5635 5633 5630 5628 5626 5624 5622 5620 5618 5616 5614 5612 5610 5609 5608 5607 5606 5605 5604 5603 5602 5600 5599 5597 5596 5594 5592 5589 5586 5584 5581 5578 5576 5574 5573 5571 5570 5568 5567 5564 5562 5560 5559 5558 5556 5555 5553 5552 5551 5549 5547 5544 5542 5540 5538 5536 5533 5531 5529 5527 5524 5522 5519 5517 5514 5512 5509 5506 5503
5633 5631 5629 5626 5624 5621 5619 5617 5615 5613 5611 5609 5608 5607 5606 5604 5603 5602 5600 5599 5598 5596 5594 5593 5592 5590 5587 5584 5581 5579 5577 5575 5574 5571 5570 5568 5567 5566 5564 5561 5558 5557 5556 5554 5553 5552 5551 5550 5548 5546 5544 5541 5539 5536 5534 5532 5530 5528 5525 5523 5521 5518 5516 5513 5510 5508 5505 5502 5499
5631 5629 5627 5624 5622 5619 5617 5615 5613 5611 5609 5608 5606 5605 5603 5601 5599 5598 5596 5595 5594 5592 5591 5589 5588 5586 5583 5579 5577 5575 5574 5573 5571 5569 5567 5566 5565 5564 5561 5558 5555 5553 5552 5551 5550 5549 5548 5547 5545 5543 5541 5538 5535 5533 5532 5529 5527 5524 5522 5520 5516 5514 5512 5510 5507 5504 5502 5498 5496
5629 5627 5625 5623 5620 5618 5615 5613 5611 5609 5607 5605 5604 5602 5600 5598 5595 5594 5593 5592 5591 5589 5587 5585 5583 5581 5578 5576 5573 5571 5570 5570 5569 5567 5565 5564 5562 5560 5558 5555 5552 5550 5549 5548 5547 5546 5545 5544 5542 5540 5538 5536 5533 5531 5529 5526 5524 5521 5519 5516 5513 5511 5508 5507 5504 5501 5498 5496 5493
5627 5625 5624 5622 5619 5616 5613 5611 5609 5607 5605 5603 5600 5598 5596 5594 5592 5590 5589 5588 5587 5586 5583 5581 5578 5575 5573 5571 5569 5567 5566 5566 5565 5564 5562 5560 5559 5557 5555 5552 5549 5547 5546 5545 5544 5543 5542 5540 5538 5537 5535 5533 5531 5529 5526 5524 5521 5518 5515 5513 5510 5508 5505 5503 5500 5498 5495 5493 5491
5625 5623 5621 5620 5617 5615 5612 5609 5607 5604 5602 5600 5598 5595 5593 5591 5589 5587 5586 5584 5583 5581 5579 5577 5574 5571 5569 5568 5566 5564 5563 5562 5561 5560 5558 5556 5554 5553 5551 5549 5546 5544 5542 5542 5541 5540 5538 5537 5535 5533 5532 5530 5528 5526 5524 5522 5518 5515 5513 5510 5508 5504 5502 5499 5496 5494 5491 5490 5489
5622 5620 5618 5616 5614 5612 5609 5607 5604 5602 5599 5598 5595 5593 5590 5589 5586 5583 5581 5579 5578 5576 5574 5572 5570 5568 5565 5564 5563 5561 5559 5557 5556 5554 5554 5552 5550 5549 5548 5546 5544 5541 5540 5538 5538 5537 5536 5534 5532 5531 5529 5527 5526 5523 5521 5519 5516 5513 5510 5507 5505 5502 5499 5495 5493 5491 5488 5487 5485